Regional Weather Roundup
Issued by NWS New Orleans/Baton Rouge, LA

Home | Current Version | Previous Version | Text Only | Print | Product List | Glossary On
Versions: 1 2 3 4 5 6 7 8 9 10 11 12 13 14 15 16 17 18 19 20 21 22 23 24 25 26 27 28 29 30 31 32 33 34 35 36 37 38 39 40 41 42 43 44 45 46 47 48 49 50
000
ASUS44 KLIX 181013
RWRLIX
NEW ORLEANS REGIONAL WEATHER ROUNDUP
NATIONAL WEATHER SERVICE NEW ORLEANS LA
400 AM CST SAT NOV 18 2017

NOTE: "FAIR" INDICATES FEW OR NO CLOUDS BELOW 12,000 FEET WITH NO
      SIGNIFICANT WEATHER AND/OR OBSTRUCTIONS TO VISIBILITY.
      SKY/WX - SKY CONDITION AND SIGNIFICANT WEATHER.
      TMP - AIR TEMPERATURE.     DP    - DEWPOINT TEMPERATURE.
      RH  - RELATIVE HUMIDITY.   PRES  - PRESSURE.
      HI  - HEAT INDEX.          WCI   - WIND CHILL INDEX.

*  THESE STATIONS ARE NOT NWS OR FAA STATIONS AND ARE NOT UNDER
   NWS QUALITY CONTROL.

LAZ038-040-048-061>063-065>067-069-181100-
SOUTHEAST LOUISIANA

CITY           SKY/WX    TMP DP  RH WIND       PRES   REMARKS
N.O. INTL ARPT PTCLDY    67  66  97 S6        29.91F
N.O. LAKEFRONT PTCLDY    67  65  93 S9        29.92F
N.O. DOWNTOWN*   N/A     69  65  86 S7        29.93F
RESERVE*         N/A     68  64  86 S9        29.91F
SLIDELL        CLEAR     65  63  93 S5        29.92F
BATON ROUGE    CLEAR     66  63  90 S8        29.89F
BOOTHVILLE     CLEAR     72  68  87 S8        29.95F
BELLE CHASSE   PTCLDY    65  65 100 S3        29.92F
BOGALUSA*      NOT AVBL
GALLIANO*      MOSUNNY   69  64  81 S7        29.93F
NEW ROADS*       N/A     65  63  93 S7        29.87F
GONZALES*        N/A     67  64  91 S6        29.89F
HAMMOND*       PTCLDY    63  63 100 S6        29.90F
HOUMA*         MOCLDY    67  64  90 S3        29.92F
PORT FOURCHON* NOT AVBL

$$

MSZ070-080>082-181100-
SOUTHERN MISSISSIPPI

CITY           SKY/WX    TMP DP  RH WIND       PRES   REMARKS
MCCOMB         MOCLDY    63  61  93 S7        29.89F FOG
GULFPORT       CLEAR     68  64  87 S5        29.93F
BILOXI         CLEAR     67  63  89 SW8       29.93F
PASCAGOULA     FOG       54  52  93 CALM      29.95F VSB 1/2

$$

COASTAL OBSERVATIONS
LAKE AND NEARSHORE STATIONS

STATION/POSITION TIME  TEMP    WIND        PRES    WAVE
                       AIR SEA DIR/SP/G            HT/PER
                 (UTC) (F)     (DEG/KT/KT) (MB)    (FT/S)

OFFSHORE STATIONS

STATION/POSITION TIME  TEMP    WIND        PRES    WAVE
                       AIR SEA DIR/SP/G            HT/PER
                 (UTC) (F)     (DEG/KT/KT) (MB)    (FT/S)
64 S DAUPHIN ISL 0950   75 78  180/ 14/ 19 1014.6    2/ 4

$$




USA.gov is the U.S. government's official web portal to all federal, state and local government web resources and services.